Las Vegas, NV

8:14 PM PDT on September 19, 2017 (GMT -0700)
McCarran International

Weather History for KLAS - April, 2013

Change the Weather History Date:

Wednesday, April 24, 2013

  Actual Average Record
Temperature  
Mean Temperature 68 °F 70 °F  
Max Temperature 80 °F 81 °F 99 °F (1946)
Min Temperature 55 °F 59 °F 38 °F (1937)
Degree Days  
Heating Degree Days 0 1  
Month to date heating degree days 34 58  
Since 1 July heating degree days 1757 1938  
Cooling Degree Days 3 6  
Month to date cooling degree days 109 87  
Year to date cooling degree days 195 118  
Growing Degree Days 17 (Base 50)    
Moisture  
Dew Point 5 °F    
Average Humidity 12    
Maximum Humidity 19    
Minimum Humidity 5    
Precipitation  
Precipitation 0.00 in 0.00 in 0.15 in (1999)
Month to date precipitation 0.03 0.13  
Year to date precipitation 0.61 1.87  
Snow  
Snow 0.00 in 0.00 in T in (1964)
Month to date snowfall 0.0 0.0  
Since 1 July snowfall T 0.3  
Snow Depth 0.00 in    
Sea Level Pressure  
Sea Level Pressure 29.84 in    
Wind  
Wind Speed 5 mph (South)    
Max Wind Speed 13 mph    
Max Gust Speed 17 mph    
Visibility 10 miles    
Events      
T = Trace of Precipitation, MM = Missing Value Source: NWS Daily Summary

Daily Weather History Graph

Daily Weather History Graph

Search for Another Location

Airport or City:

Trip Planner

Search our weather history database for the weather conditions in past years. The results will help you decide how hot, cold, wet, or windy it might be!

Date:

Astronomy

Apr. 24, 2013 Rise Set
Actual Time 5:55 AM PDT 7:22 PM PDT
Civil Twilight 5:28 AM PDT 7:49 PM PDT
Nautical Twilight 4:56 AM PDT 8:21 PM PDT
Astronomical Twilight 4:22 AM PDT 8:55 PM PDT
Moon 6:31 PM PDT (4/24) 4:59 AM PDT (4/24)
Length of Visible Light 14h 20m
Length of Day
13h 26m
Waxing Gibbous, 98% of the Moon is Illuminated
Apr 24
Waxing Gibbous
Apr 25
Full
May 2
Last Quarter
May 9
New
May 17
First Quarter

Hourly Weather History & Observations

Time (PDT) Temp. Dew Point Humidity Pressure Visibility Wind Dir Wind Speed Gust Speed Precip Events Conditions
12:56 AM 59.0 °F 7.0 °F 13% 29.86 in 10.0 mi SSW 10.4 mph - N/A   Clear
1:56 AM 59.0 °F 7.0 °F 13% 29.83 in 10.0 mi SSW 10.4 mph - N/A   Clear
2:56 AM 57.0 °F 7.0 °F 14% 29.84 in 10.0 mi SSW 10.4 mph - N/A   Clear
3:56 AM 57.0 °F 10.9 °F 16% 29.84 in 10.0 mi SSW 5.8 mph - N/A   Clear
4:56 AM 57.9 °F 8.1 °F 14% 29.84 in 10.0 mi Calm Calm - N/A   Clear
5:56 AM 55.0 °F 14.0 °F 20% 29.87 in 10.0 mi SW 4.6 mph - N/A   Clear
6:56 AM 59.0 °F 8.1 °F 13% 29.89 in 10.0 mi Calm Calm - N/A   Clear
7:56 AM 62.1 °F 6.1 °F 11% 29.92 in 10.0 mi ESE 4.6 mph - N/A   Clear
8:56 AM 64.9 °F 7.0 °F 10% 29.93 in 10.0 mi ESE 5.8 mph - N/A   Partly Cloudy
9:56 AM 68.0 °F 7.0 °F 9% 29.94 in 10.0 mi Variable 3.5 mph - N/A   Partly Cloudy
10:56 AM 72.0 °F 3.9 °F 7% 29.94 in 10.0 mi ENE 5.8 mph - N/A   Partly Cloudy
11:56 AM 73.9 °F 3.9 °F 7% 29.92 in 10.0 mi Variable 3.5 mph - N/A   Scattered Clouds
12:56 PM 75.9 °F 3.0 °F 6% 29.90 in 10.0 mi Variable 3.5 mph - N/A   Scattered Clouds
1:56 PM 77.0 °F 1.9 °F 5% 29.87 in 10.0 mi East 10.4 mph 16.1 mph N/A   Scattered Clouds
2:56 PM 79.0 °F 1.9 °F 5% 29.83 in 10.0 mi East 9.2 mph - N/A   Scattered Clouds
3:56 PM 78.1 °F 1.0 °F 5% 29.80 in 10.0 mi Variable 5.8 mph - N/A   Mostly Cloudy
4:56 PM 78.1 °F -0.9 °F 5% 29.78 in 10.0 mi Variable 4.6 mph - N/A   Mostly Cloudy
5:56 PM 79.0 °F -0.0 °F 5% 29.77 in 10.0 mi Calm Calm - N/A   Mostly Cloudy
6:56 PM 77.0 °F -0.0 °F 5% 29.77 in 10.0 mi Variable 3.5 mph - N/A   Partly Cloudy
7:56 PM 75.0 °F 1.9 °F 6% 29.76 in 10.0 mi Calm Calm - N/A   Partly Cloudy
8:56 PM 73.0 °F 7.0 °F 8% 29.78 in 10.0 mi SSW 4.6 mph - N/A   Partly Cloudy
9:56 PM 70.0 °F 6.1 °F 8% 29.79 in 10.0 mi SW 6.9 mph - N/A   Partly Cloudy
10:56 PM 68.0 °F 5.0 °F 8% 29.79 in 10.0 mi SW 5.8 mph - N/A   Partly Cloudy
11:56 PM 66.9 °F 10.9 °F 11% 29.79 in 10.0 mi SSW 3.5 mph - N/A   Scattered Clouds